• In Hungary
  • List of Countries
  • For 7 days
  • Water Temperature
  • Satellite Maps
  • Weather Map
  • News
  • Weather Widgets
  • user-avatar
    Login

    Hourly Weather Estelí

    Today, 17 January, Wednesday

    Time Temperature Precipitation Wind Pressure Humidity
    00:00 +18°C° 0 mm 2 mps 688 mmHg 78%
    01:00 +18°C° 0 mm 2 mps 688 mmHg 78%
    02:00 +18°C° 0 mm 2 mps 688 mmHg 79%
    03:00 +18°C° 0 mm 2 mps 688 mmHg 79%
    04:00 +18°C° 0 mm 2 mps 688 mmHg 79%
    05:00 +17°C° 0 mm 2 mps 688 mmHg 78%
    06:00 +17°C° 0 mm 2 mps 688 mmHg 78%
    07:00 +19°C° 0 mm 3 mps 689 mmHg 70%
    08:00 +21°C° 0 mm 4 mps 689 mmHg 63%
    09:00 +23°C° 0 mm 5 mps 690 mmHg 55%
    10:00 +26°C° 0 mm 5 mps 690 mmHg 51%
    11:00 +27°C° 0 mm 6 mps 690 mmHg 47%
    12:00 +29°C° 0 mm 7 mps 690 mmHg 43%
    13:00 +29°C° 0 mm 6 mps 689 mmHg 43%
    14:00 +29°C° 0 mm 6 mps 689 mmHg 43%
    15:00 +29°C° 0 mm 6 mps 688 mmHg 43%
    16:00 +27°C° 0 mm 5 mps 688 mmHg 48%
    17:00 +25°C° 0 mm 5 mps 688 mmHg 52%
    18:00 +22°C° 0 mm 4 mps 688 mmHg 57%
    19:00 +21°C° 0 mm 3 mps 688 mmHg 60%
    20:00 +20°C° 0 mm 3 mps 688 mmHg 62%
    21:00 +19°C° 0 mm 3 mps 689 mmHg 65%
    22:00 +19°C° 0 mm 3 mps 689 mmHg 66%
    23:00 +18°C° 0 mm 2 mps 689 mmHg 67%

    Tomorrow, 18 January, Thursday

    Time Temperature Precipitation Wind Pressure Humidity
    00:00 +18°C° 0 mm 2 mps 688 mmHg 69%
    01:00 +18°C° 0 mm 2 mps 688 mmHg 69%
    02:00 +17°C° 0 mm 2 mps 688 mmHg 70%
    03:00 +17°C° 0 mm 2 mps 687 mmHg 71%
    04:00 +17°C° 0 mm 2 mps 687 mmHg 72%
    05:00 +17°C° 0 mm 2 mps 687 mmHg 73%
    06:00 +17°C° 0 mm 3 mps 688 mmHg 74%
    07:00 +19°C° 0 mm 3 mps 688 mmHg 68%
    08:00 +21°C° 0 mm 4 mps 689 mmHg 62%
    09:00 +23°C° 0 mm 5 mps 690 mmHg 56%
    10:00 +25°C° 0 mm 5 mps 690 mmHg 54%
    11:00 +26°C° 0 mm 6 mps 690 mmHg 52%
    12:00 +27°C° 0 mm 6 mps 689 mmHg 50%
    13:00 +26°C° 0 mm 6 mps 689 mmHg 53%
    14:00 +26°C° 0 mm 6 mps 688 mmHg 55%
    15:00 +24°C° 0 mm 6 mps 687 mmHg 58%
    16:00 +23°C° 0 mm 5 mps 687 mmHg 63%
    17:00 +21°C° 0 mm 4 mps 687 mmHg 68%
    18:00 +20°C° 0 mm 3 mps 688 mmHg 73%
    19:00 +20°C° 0 mm 3 mps 688 mmHg 74%
    20:00 +19°C° 0 mm 4 mps 688 mmHg 75%
    21:00 +19°C° 0 mm 4 mps 689 mmHg 77%
    22:00 +19°C° 0 mm 4 mps 689 mmHg 76%
    23:00 +19°C° 0 mm 3 mps 689 mmHg 76%

    Day after tomorrow, 19 January, Friday

    Time Temperature Precipitation Wind Pressure Humidity
    00:00 +19°C° 0 mm 3 mps 689 mmHg 76%
    01:00 +19°C° 0 mm 3 mps 688 mmHg 76%
    02:00 +19°C° 0 mm 3 mps 688 mmHg 77%
    03:00 +19°C° 0 mm 3 mps 687 mmHg 77%
    04:00 +19°C° 0 mm 3 mps 687 mmHg 78%
    05:00 +19°C° 0 mm 3 mps 688 mmHg 79%
    06:00 +18°C° 0 mm 3 mps 688 mmHg 80%
    07:00 +20°C° 0 mm 4 mps 688 mmHg 74%
    08:00 +21°C° 0 mm 5 mps 689 mmHg 68%
    09:00 +23°C° 0 mm 5 mps 690 mmHg 63%
    10:00 +24°C° 0 mm 6 mps 690 mmHg 60%
    11:00 +26°C° 0 mm 6 mps 689 mmHg 57%
    12:00 +26°C° 0 mm 6 mps 689 mmHg 54%
    13:00 +26°C° 0 mm 6 mps 688 mmHg 54%
    14:00 +26°C° 0 mm 6 mps 688 mmHg 54%
    15:00 +26°C° 0 mm 6 mps 687 mmHg 55%
    16:00 +25°C° 0 mm 5 mps 687 mmHg 60%
    17:00 +22°C° 0 mm 4 mps 687 mmHg 65%
    18:00 +21°C° 0 mm 3 mps 687 mmHg 71%
    19:00 +20°C° 0 mm 3 mps 687 mmHg 73%
    20:00 +19°C° 0 mm 3 mps 688 mmHg 76%
    21:00 +19°C° 0 mm 3 mps 688 mmHg 78%
    22:00 +19°C° 0 mm 3 mps 688 mmHg 79%
    23:00 +19°C° 0 mm 3 mps 688 mmHg 79%

    20 January, Saturday

    Time Temperature Precipitation Wind Pressure Humidity
    00:00 +19°C° 0 mm 3 mps 688 mmHg 80%
    01:00 +18°C° 0 mm 3 mps 687 mmHg 80%
    02:00 +18°C° 0 mm 3 mps 687 mmHg 81%
    03:00 +18°C° 0 mm 3 mps 686 mmHg 82%
    04:00 +18°C° 0 mm 3 mps 686 mmHg 82%
    05:00 +18°C° 0 mm 3 mps 686 mmHg 83%
    06:00 +18°C° 0 mm 3 mps 687 mmHg 83%
    07:00 +20°C° 0 mm 3 mps 687 mmHg 75%
    08:00 +22°C° 0 mm 4 mps 688 mmHg 68%
    09:00 +23°C° 0 mm 5 mps 689 mmHg 61%
    10:00 +25°C° 0 mm 5 mps 689 mmHg 58%
    11:00 +26°C° 0 mm 5 mps 688 mmHg 55%
    12:00 +27°C° 0 mm 5 mps 688 mmHg 52%
    13:00 +28°C° 0 mm 5 mps 687 mmHg 50%
    14:00 +28°C° 0 mm 5 mps 686 mmHg 49%
    15:00 +29°C° 0 mm 4 mps 686 mmHg 47%
    16:00 +27°C° 0 mm 4 mps 686 mmHg 54%
    17:00 +25°C° 0 mm 3 mps 686 mmHg 62%
    18:00 +22°C° 0 mm 3 mps 686 mmHg 69%
    19:00 +21°C° 0 mm 2 mps 686 mmHg 74%
    20:00 +21°C° 0 mm 2 mps 687 mmHg 79%
    21:00 +20°C° 0 mm 2 mps 687 mmHg 83%
    22:00 +19°C° 0 mm 2 mps 687 mmHg 84%
    23:00 +19°C° 0 mm 2 mps 687 mmHg 86%

    21 January, Sunday

    Time Temperature Precipitation Wind Pressure Humidity
    00:00 +19°C° 0 mm 2 mps 687 mmHg 87%
    01:00 +19°C° 0 mm 2 mps 686 mmHg 87%
    02:00 +19°C° 0 mm 2 mps 686 mmHg 87%
    03:00 +18°C° 0 mm 2 mps 685 mmHg 87%
    04:00 +18°C° 0 mm 2 mps 686 mmHg 87%
    05:00 +18°C° 0 mm 2 mps 686 mmHg 87%
    06:00 +18°C° 0 mm 2 mps 686 mmHg 87%
    07:00 +20°C° 0 mm 3 mps 687 mmHg 79%
    08:00 +22°C° 0 mm 3 mps 688 mmHg 70%
    09:00 +25°C° 0 mm 4 mps 688 mmHg 62%
    10:00 +26°C° 0 mm 4 mps 688 mmHg 57%
    11:00 +28°C° 0 mm 5 mps 688 mmHg 52%
    12:00 +29°C° 0 mm 5 mps 687 mmHg 47%
    13:00 +29°C° 0 mm 5 mps 686 mmHg 46%
    14:00 +29°C° 0 mm 5 mps 685 mmHg 46%
    15:00 +29°C° 0 mm 4 mps 685 mmHg 45%
    16:00 +28°C° 0 mm 4 mps 685 mmHg 52%
    17:00 +26°C° 0 mm 3 mps 685 mmHg 60%
    18:00 +24°C° 0 mm 2 mps 685 mmHg 67%
    19:00 +23°C° 0 mm 2 mps 685 mmHg 72%
    20:00 +21°C° 0 mm 2 mps 685 mmHg 77%
    21:00 +20°C° 0 mm 2 mps 686 mmHg 83%
    22:00 +20°C° 0 mm 2 mps 686 mmHg 85%
    23:00 +19°C° 0 mm 2 mps 685 mmHg 87%

    22 January, Monday

    Time Temperature Precipitation Wind Pressure Humidity
    00:00 +19°C° 0 mm 2 mps 685 mmHg 89%
    01:00 +19°C° 0 mm 2 mps 685 mmHg 89%
    02:00 +19°C° 0 mm 2 mps 685 mmHg 89%
    03:00 +18°C° 0 mm 2 mps 684 mmHg 90%
    04:00 +18°C° 0 mm 2 mps 685 mmHg 89%
    05:00 +18°C° 0 mm 2 mps 685 mmHg 89%
    06:00 +18°C° 0 mm 2 mps 685 mmHg 89%
    07:00 +20°C° 0 mm 2 mps 686 mmHg 80%
    08:00 +22°C° 0 mm 3 mps 687 mmHg 71%
    09:00 +25°C° 0 mm 3 mps 688 mmHg 62%
    10:00 +27°C° 0 mm 3 mps 688 mmHg 57%
    11:00 +28°C° 0 mm 4 mps 687 mmHg 52%
    12:00 +29°C° 0 mm 4 mps 687 mmHg 47%
    13:00 +29°C° 0 mm 4 mps 686 mmHg 48%
    14:00 +29°C° 0 mm 4 mps 686 mmHg 49%
    15:00 +29°C° 0 mm 4 mps 685 mmHg 50%
    16:00 +27°C° 0 mm 3 mps 685 mmHg 57%
    17:00 +25°C° 0 mm 3 mps 685 mmHg 64%
    18:00 +24°C° 0 mm 2 mps 685 mmHg 71%
    19:00 +23°C° 0 mm 2 mps 686 mmHg 75%
    20:00 +21°C° 0 mm 2 mps 686 mmHg 79%
    21:00 +20°C° 0 mm 2 mps 686 mmHg 83%
    22:00 +20°C° 0 mm 2 mps 686 mmHg 84%
    23:00 +19°C° 0 mm 2 mps 686 mmHg 85%
    Show more